User: anonymous   Login
Location: Ash Swamp
(41.5170°N, 74.6157°W)
Time: 18:55:10
(UTC+00:00)
Language:

RESURS DK-1 - Orbit

View from above orbital plane
View from above orbital plane
View from above satellite
View from above satellite

Ground track
Ground track

The orbit data is extracted from the following two-line orbital elements,

1 29228U 06021A   20269.80563971 +.00000103 +00000-0 +15104-4 0  9999
2 29228 069.9342 292.5270 0007496 292.8540 067.1829 15.02569260787822
Epoch (UTC): 25 September 2020 19:20:07
Eccentricity: 0.0007496
inclination: 69.9342°
perigee height: 554 km
apogee height: 564 km
right ascension of ascending node: 292.5270°
argument of perigee: 292.8540°
revolutions per day: 15.02569260
mean anomaly at epoch: 67.1829°
orbit number at epoch: 78782

The dashed part of the orbit path shows where the satellite is in the earth's shadow,  

DLR